Terug naar catalogus

STARLINK-30231

ActiefCommunicatieVLEO
NORAD 57514·PAYLOAD·🇺🇸 United States

Gelanceerd Aug 7, 2023 vanaf Cape Canaveral Space Force Station

Loading…

Volgende Passages (komende 24 uur)

TLE

VersSource: CelesTrak SupGP

Epoch: Sep 15, 2026, 01:40 UTC

1 57514C 23113V   26258.06993056 -.00025363  00000+0 -91853-3 0  2580
2 57514  43.0031  26.4731 0001602 267.3178 294.1631 15.27594254    12

Volg STARLINK-30231 in realtime met AllMySat

Download on the App Store